Back to catalog

NISAR

AliveScienceSSO
NORAD 65053·PAYLOAD·🇮🇳 India

Launched Jul 30, 2025 from Satish Dhawan Space Centre

Loading…

Next Passes (next 24 hours)

TLE

FreshSource: Space-Track

Epoch: Sep 14, 2026, 13:48 UTC

1 65053U 25163A   26257.57539102 -.00000173  00000-0 -39231-4 0  9995
2 65053  98.4063  83.9428 0001186  87.5858 272.5468 14.42502849 59278

Track NISAR in real time with AllMySat

Download on the App Store